This is the latest recevied weather packets stored in our database for station/object AC4AG. If no packets are shown the sender has not sent any weather packets the latest 10 day(s).
| Time | Temp. | Humidity | Pressure | Rain* | Wind** | Luminosity | Snow |
|---|---|---|---|---|---|---|---|
| 1777498400 | 16.67° C | 89% | 1011.5 hPa | 0 mm | - | 155 W/m² | - |
| 1777498097 | 16.67° C | 90% | 1011.2 hPa | 0 mm | - | 94 W/m² | - |
| 1777497794 | 16.67° C | 89% | 1011.3 hPa | 0 mm | - | 168 W/m² | - |
| 1777497490 | 16.67° C | 88% | 1011.2 hPa | 0 mm | - | 203 W/m² | - |
| 1777497186 | 16.67° C | 88% | 1011.2 hPa | 0 mm | - | 215 W/m² | - |
| 1777496883 | 16.11° C | 88% | 1011.1 hPa | 0 mm | - | 294 W/m² | - |
| 1777496580 | 16.11° C | 89% | 1011.3 hPa | 0 mm | - | 211 W/m² | - |
| 1777496276 | 16.67° C | 90% | 1011.1 hPa | 0 mm | - | 140 W/m² | - |
| 1777495972 | 16.67° C | 91% | 1011.1 hPa | 0 mm | - | 75 W/m² | - |
| 1777495668 | 16.67° C | 91% | 1010.9 hPa | 0 mm | - | 124 W/m² | - |
| 1777495364 | 16.67° C | 90% | 1011 hPa | 0 mm | - | 82 W/m² | - |
| 1777495062 | 17.22° C | 90% | 1011 hPa | 0 mm | - | 59 W/m² | - |
| 1777494759 | 17.22° C | 89% | 1010.7 hPa | 0 mm | - | 147 W/m² | - |
| 1777494456 | 17.78° C | 86% | 1010.8 hPa | 0 mm | - | 101 W/m² | - |
| 1777494152 | 18.33° C | 84% | 1010.6 hPa | 0 mm | - | 283 W/m² | - |
| 1777493850 | 18.89° C | 83% | 1010.6 hPa | 0 mm | - | 214 W/m² | - |
| 1777493548 | 18.33° C | 84% | 1010.8 hPa | 0 mm | - | 416 W/m² | - |
| 1777493245 | 18.33° C | 86% | 1010.9 hPa | 0 mm | - | 326 W/m² | - |
| 1777492941 | 18.89° C | 85% | 1010.8 hPa | 0 mm | - | 176 W/m² | - |
| 1777492639 | 18.89° C | 84% | 1010.6 hPa | 0 mm | - | 204 W/m² | - |
| 1777492338 | 18.89° C | 85% | 1010.7 hPa | 0 mm | - | 299 W/m² | - |
| 1777492035 | 18.89° C | 86% | 1010.8 hPa | 0 mm | - | 177 W/m² | - |
| 1777491732 | 18.89° C | 86% | 1010.8 hPa | 0 mm | - | 111 W/m² | - |
| 1777491430 | 18.89° C | 85% | 1010.6 hPa | 0 mm | - | 267 W/m² | - |
| 1777491127 | 19.44° C | 85% | 1010.5 hPa | 0 mm | - | 254 W/m² | - |
* Rain latest hour (hover to see other rain measurements)
** Current wind speed in m/s (hover to see current wind gust speed)